Glasgow, United Kingdom

5:39 PM BST on May 26, 2017 (GMT +0100)
Glasgow

Weather History for EGPF - April, 2017

Change the Weather History Date:

Friday, April 21, 2017

  Actual Average Record
Temperature  
Mean Temperature 48 °F -  
Max Temperature 55 °F 56 °F 68 °F (2011)
Min Temperature 42 °F 41 °F 30 °F (2015)
Degree Days  
Heating Degree Days 16    
Moisture  
Dew Point 43 °F    
Average Humidity 78    
Maximum Humidity 94    
Minimum Humidity 54    
Precipitation  
Precipitation 0.00 in - - ()
Sea Level Pressure  
Sea Level Pressure 30.39 in    
Wind  
Wind Speed 12 mph ()    
Max Wind Speed 21 mph    
Max Gust Speed 26 mph    
Visibility 6.1 miles    
Events Rain    
Averages and records for this station are not official NWS values.
T = Trace of Precipitation, MM = Missing Value Source: Averaged Metar Reports

Daily Weather History Graph

Daily Weather History Graph

Search for Another Location

Airport or City:

Trip Planner

Search our weather history database for the weather conditions in past years. The results will help you decide how hot, cold, wet, or windy it might be!

Date:

Astronomy

Apr. 21, 2017 Rise Set
Actual Time 5:57 AM BST 8:36 PM BST
Civil Twilight 5:16 AM BST 9:18 PM BST
Nautical Twilight 4:22 AM BST 10:12 PM BST
Astronomical Twilight 3:13 AM BST 11:23 PM BST
Moon 4:17 AM BST (4/21) 1:56 PM BST (4/21)
Length of Visible Light 16h 02m
Length of Day
14h 39m
Waning Crescent, 30% of the Moon is Illuminated
Apr 21
Waning Crescent
Apr 26
New
May 3
First Quarter
May 10
Full
May 19
Last Quarter

Hourly Weather History & Observations

Time (BST) Temp. Windchill Dew Point Humidity Pressure Visibility Wind Dir Wind Speed Gust Speed Precip Events Conditions
12:20 AM 50.0 °F - 48.2 °F 94% 30.45 in 6.2 mi SW 9.2 mph - N/A   Mostly Cloudy
12:50 AM 50.0 °F - 48.2 °F 94% 30.45 in 6.2 mi WSW 5.8 mph - N/A Rain Light Rain
1:20 AM 50.0 °F - 48.2 °F 94% 30.42 in 6.2 mi WSW 12.7 mph - N/A   Mostly Cloudy
1:50 AM 50.0 °F - 48.2 °F 94% 30.42 in 6.2 mi WSW 12.7 mph - N/A   Mostly Cloudy
2:20 AM 50.0 °F - 48.2 °F 94% 30.42 in 5.6 mi SW 11.5 mph - N/A Rain Light Rain
2:50 AM 50.0 °F - 48.2 °F 94% 30.42 in 6.2 mi WSW 13.8 mph - N/A   Mostly Cloudy
3:20 AM 50.0 °F - 48.2 °F 94% 30.39 in 6.2 mi WSW 12.7 mph - N/A   Mostly Cloudy
3:50 AM 50.0 °F - 48.2 °F 94% 30.39 in 6.2 mi WSW 13.8 mph - N/A   Overcast
4:20 AM 50.0 °F - 48.2 °F 94% 30.39 in 3.7 mi WSW 15.0 mph - N/A Rain Light Rain
4:50 AM 50.0 °F - 48.2 °F 94% 30.36 in 6.2 mi SW 15.0 mph - N/A   Mostly Cloudy
5:20 AM 50.0 °F - 48.2 °F 94% 30.36 in 6.2 mi WSW 11.5 mph - N/A Rain Light Rain
5:50 AM 50.0 °F - 48.2 °F 94% 30.36 in 6.2 mi West 12.7 mph - N/A   Scattered Clouds
6:20 AM 50.0 °F - 46.4 °F 87% 30.36 in 6.2 mi WSW 12.7 mph - N/A   Mostly Cloudy
6:50 AM 50.0 °F - 46.4 °F 87% 30.36 in 6.2 mi WSW 13.8 mph - N/A   Mostly Cloudy
7:20 AM 51.8 °F - 46.4 °F 82% 30.36 in 6.2 mi WSW 13.8 mph - N/A   Mostly Cloudy
7:50 AM 50.0 °F - 48.2 °F 94% 30.36 in 6.2 mi WSW 10.4 mph - N/A Rain Light Rain
8:20 AM 51.8 °F - 48.2 °F 88% 30.36 in 6.2 mi WSW 12.7 mph - N/A   Overcast
8:50 AM 51.8 °F - 48.2 °F 88% 30.36 in 6.2 mi WSW 12.7 mph - N/A   Overcast
9:20 AM 51.8 °F - 48.2 °F 88% 30.36 in 5.6 mi WSW 11.5 mph - N/A Rain Light Rain
9:50 AM 51.8 °F - 48.2 °F 88% 30.36 in 6.2 mi WSW 12.7 mph - N/A   Overcast
10:20 AM 53.6 °F - 48.2 °F 82% 30.36 in 6.2 mi West 16.1 mph - N/A   Mostly Cloudy
10:50 AM 53.6 °F - 48.2 °F 82% 30.36 in 6.2 mi WSW 13.8 mph - N/A   Overcast
11:20 AM 53.6 °F - 46.4 °F 77% 30.36 in 6.2 mi West 15.0 mph - N/A   Mostly Cloudy
11:50 AM 53.6 °F - 46.4 °F 77% 30.36 in 6.2 mi West 20.7 mph - N/A   Mostly Cloudy
12:20 PM 53.6 °F - 48.2 °F 82% 30.36 in 5.6 mi West 18.4 mph - N/A   Mostly Cloudy
12:50 PM 53.6 °F - 48.2 °F 82% 30.36 in 6.2 mi West 16.1 mph - N/A   Overcast
1:20 PM 53.6 °F - 48.2 °F 82% 30.36 in 6.2 mi WNW 13.8 mph - N/A   Mostly Cloudy
1:50 PM 55.4 °F - 44.6 °F 67% 30.36 in 6.2 mi WNW 19.6 mph - N/A   Scattered Clouds
2:20 PM 53.6 °F - 44.6 °F 72% 30.36 in 6.2 mi WNW 18.4 mph - N/A   Mostly Cloudy
2:50 PM 55.4 °F - 42.8 °F 63% 30.36 in 6.2 mi NW 16.1 mph - N/A   Scattered Clouds
3:20 PM 53.6 °F - 42.8 °F 67% 30.36 in 6.2 mi West 18.4 mph - N/A   Mostly Cloudy
3:50 PM 53.6 °F - 39.2 °F 58% 30.39 in 6.2 mi WNW 16.1 mph - N/A   Mostly Cloudy
4:20 PM 53.6 °F - 39.2 °F 58% 30.39 in 6.2 mi WNW 19.6 mph - N/A   Partly Cloudy
4:50 PM 53.6 °F - 37.4 °F 54% 30.36 in 6.2 mi WNW 20.7 mph - N/A   Unknown
5:20 PM 53.6 °F - 39.2 °F 58% 30.36 in 6.2 mi WNW 16.1 mph - N/A   Unknown
5:50 PM 53.6 °F - 39.2 °F 58% 30.36 in 6.2 mi WNW 18.4 mph - N/A   Unknown
6:20 PM 51.8 °F - 37.4 °F 58% 30.39 in 6.2 mi WNW 15.0 mph 26.5 mph N/A   Unknown
6:50 PM 51.8 °F - 35.6 °F 54% 30.39 in 6.2 mi WNW 15.0 mph - N/A   Unknown
7:20 PM 50.0 °F - 35.6 °F 58% 30.39 in 6.2 mi WNW 17.3 mph - N/A   Unknown
7:50 PM 50.0 °F - 35.6 °F 58% 30.39 in 6.2 mi WNW 13.8 mph - N/A   Unknown
8:20 PM 48.2 °F - 35.6 °F 62% 30.42 in 6.2 mi NW 13.8 mph - N/A   Unknown
8:50 PM 46.4 °F 40.7 °F 35.6 °F 66% 30.42 in 6.2 mi NW 12.7 mph - N/A   Unknown
9:20 PM 46.4 °F 40.7 °F 33.8 °F 62% 30.42 in 6.2 mi NW 12.7 mph - N/A   Unknown
9:50 PM 44.6 °F 40.7 °F 33.8 °F 66% 30.42 in 6.2 mi WNW 6.9 mph - N/A   Unknown
10:20 PM 42.8 °F 38.6 °F 35.6 °F 76% 30.42 in 6.2 mi West 6.9 mph - N/A   Unknown
10:50 PM 42.8 °F 38.6 °F 35.6 °F 76% 30.42 in 6.2 mi West 6.9 mph - N/A   Unknown
11:20 PM 42.8 °F 39.3 °F 35.6 °F 76% 30.45 in 6.2 mi WNW 5.8 mph - N/A   Unknown
11:50 PM 42.8 °F 37.5 °F 33.8 °F 70% 30.45 in 6.2 mi WNW 9.2 mph - N/A   Unknown